Skip Page Navigation
NASA JPL Caltech
NASA Logo - Jet Propulsion Laboratory + View the NASA Portal
+ Near-Earth Object (NEO) Program
Search JPL
JPL Home Earth Solar System Stars & Galaxies Technology
JPL Solar System Dynamics
BODIES ORBITS EPHEMERIDES TOOLS PHYSICAL DATA DISCOVERY FAQ SITE MAP
JPL Small-Body Database Browser
Search: [ help ]  
7303 (1993 FS1)
Classification: Main-belt Asteroid          SPK-ID: 2007303
Ephemeris | Orbit Diagram | Orbital Elements | Physical Parameters | Discovery Circumstances | Close-Approach Data ]

[ show orbit diagram ]
Orbital Elements at Epoch 2457000.5 (2014-Dec-09.0) TDB
Reference: JPL 12 (heliocentric ecliptic J2000)
 Element Value Uncertainty (1-sigma)   Units 
e .0958473219086914 5.4501e-08  
a 3.03997245136631 2.8961e-08 AU
q 2.74859923322665 1.7655e-07 AU
i 11.61808629716076 7.1378e-06 deg
node 150.9237226000696 2.8007e-05 deg
peri 100.0736260960307 4.8549e-05 deg
M 335.431476192982 4.1331e-05 deg
tp 2457132.623314756840
(2015-Apr-20.12331476)
0.00022256 JED
period 1935.989060070252
5.30
2.7666e-05
7.575e-08
d
yr
n .1859514639958433 2.6573e-09 deg/d
Q 3.331345669505971 3.1737e-08 AU
  Orbit Determination Parameters
   # obs. used (total)      1103  
   data-arc span      16294 days (44.61 yr)  
   first obs. used      1969-11-10  
   last obs. used      2014-06-21  
   planetary ephem.      DE431  
   SB-pert. ephem.      SB431-BIG16  
   condition code      0  
   fit RMS      .52576  
   data source      ORB  
   producer      Otto Matic  
   solution date      2015-Jan-08 00:20:48  

Additional Information
 Earth MOID = 1.76657 AU 
 T_jup = 3.202 
[ show covariance matrix ]

Ephemeris | Orbit Diagram | Orbital Elements | Physical Parameters | Discovery Circumstances | Close-Approach Data ]

Physical Parameter Table
Parameter Symbol Value Units Sigma Reference Notes
absolute magnitude H 12.2 mag n/a MPO250281  

7303 (1993 FS1)          Discovered 1993-Mar-25 by Ueda, S., Kaneda, H. at Kushiro (399)
Reference: DISCOVERY.DBLast Updated: 2003-08-29

[ show close-approach data ]
Alternate Designations
 1993 FS1 = 1951 JC1 = 1969 VE3 = 1989 RF2 
Ephemeris | Orbit Diagram | Orbital Elements | Physical Parameters | Discovery Circumstances | Close-Approach Data ]
ABOUT SSD CREDITS/AWARDS PRIVACY/COPYRIGHT GLOSSARY LINKS
FirstGov 2015-Feb-27 00:30 UT
(server date/time)  
NASA Home Page
Site Manager:   Ryan S. Park
Webmaster  Alan B. Chamberlin